 ,,�O�C���x [��],����1,�O�C���x [��],����2,���ԉ��x [��],����3,���Ԏ��x [��],����4,�m��(��󒲎�)���x [��],����5,���� [��],����6,�R����[��],����7
2005/1/1,0:00,-1.1,0,91.4,0,21.8,0,45.8,0,14.8,0,9.1,0,23.4,0
2005/1/1,0:15,-1,0,91.4,0,21.8,0,47.5,0,14.8,0,9.3,0,23.2,0
2005/1/1,0:30,-1,0,91.3,0,21.7,0,45.2,0,14.8,0,9.4,0,22.6,0
2005/1/1,0:45,-1,0,91,0,21.7,0,45.1,0,14.7,0,9.6,0,22.1,0
2005/1/1,1:00,-1.1,0,91,0,21.7,0,45.8,0,14.8,0,9.8,0,21.7,0
2005/1/1,1:15,-1.1,0,91.3,0,21.7,0,46,0,14.8,0,9.9,0,21.5,0
2005/1/1,1:30,-1.1,0,91.4,0,21.6,0,47.7,0,14.8,0,10.1,0,21.2,0
2005/1/1,1:45,-1.1,0,91,0,21.6,0,48.8,0,14.8,0,10.3,0,21,0
2005/1/1,2:00,-1.2,0,90.8,0,21.6,0,48.7,0,14.8,0,10.5,0,20.9,0
2005/1/1,2:15,-1.4,0,90.4,0,21.5,0,48.2,0,14.9,0,10.7,0,20.7,0
2005/1/1,2:30,-1.6,0,90.2,0,21.5,0,47.5,0,14.9,0,10.9,0,20.6,0
2005/1/1,2:45,-1.7,0,89.4,0,21.5,0,47.1,0,14.9,0,11.1,0,20.5,0
2005/1/1,3:00,-1.7,0,88.6,0,21.5,0,46.7,0,14.9,0,11.3,0,20.4,0
2005/1/1,3:15,-1.6,0,88.1,0,21.5,0,46.2,0,14.9,0,11.5,0,20.4,0
2005/1/1,3:30,-1.6,0,87.7,0,21.5,0,45.8,0,15,0,11.6,0,20.3,0
2005/1/1,3:45,-1.7,0,87.1,0,21.5,0,45.3,0,15,0,11.8,0,20.2,0
2005/1/1,4:00,-1.7,0,87.2,0,21.5,0,44.9,0,15.1,0,12,0,20.2,0
2005/1/1,4:15,-1.8,0,86.7,0,21.5,0,44.5,0,15.1,0,12.1,0,20.1,0
2005/1/1,4:30,-2.1,0,88.1,0,21.5,0,44,0,15.1,0,12.3,0,20,0
2005/1/1,4:45,-2.5,0,88.5,0,21.5,0,43.5,0,15.1,0,12.4,0,20,0
2005/1/1,5:00,-3.1,0,88.9,0,21.5,0,43,0,15.1,0,12.6,0,20,0
2005/1/1,5:15,-3.8,0,90.4,0,21.5,0,42.6,0,15.1,0,12.7,0,19.9,0
2005/1/1,5:30,-3.1,0,91.2,0,21.4,0,42.1,0,15.1,0,12.9,0,19.8,0
2005/1/1,5:45,-2.9,0,90.9,0,21.4,0,41.8,0,15.1,0,13,0,19.8,0
2005/1/1,6:00,-2.8,0,90.8,0,21.4,0,41.1,0,15.1,0,13.1,0,19.7,0
2005/1/1,6:15,-3.2,0,89.6,0,21.3,0,40.7,0,15.1,0,10.6,0,19.7,0
2005/1/1,6:30,-4.3,0,89.6,0,21.3,0,40.5,0,15.2,0,10.1,0,19.6,0
2005/1/1,6:45,-3.7,0,90.9,0,21.3,0,42,0,15.5,0,10.1,0,19.6,0
2005/1/1,7:00,-3.3,0,91,0,21.4,0,41.9,0,15.7,0,10.2,0,19.8,0
2005/1/1,7:15,-3.9,0,89.8,0,21.4,0,41.7,0,15.7,0,10.4,0,19.8,0
2005/1/1,7:30,-3.5,0,90.5,0,21.4,0,40.8,0,15.8,0,9.1,0,19.8,0
2005/1/1,7:45,-4.1,0,88.5,0,21.4,0,44.1,0,15.7,0,8.2,0,21.4,0
2005/1/1,8:00,-3.3,0,89.4,0,21.7,0,49.1,0,15.8,0,8,0,22.1,0
2005/1/1,8:15,-2.2,0,87.3,0,22.1,0,51.8,0,15.9,0,8.2,0,22.5,0
2005/1/1,8:30,-1.2,0,79.4,0,22.1,0,46.2,0,15.9,0,8.3,0,22.6,0
2005/1/1,8:45,-1.2,0,77.4,0,22.2,0,44.2,0,15.8,0,8.5,0,23.1,0
2005/1/1,9:00,-1.7,0,83.2,0,22.3,0,44.6,0,15.6,0,8.5,0,23.2,0
2005/1/1,9:15,-1.2,0,81.2,0,22.4,0,44.3,0,15.5,0,8.6,0,23.1,0
2005/1/1,9:30,-1.2,0,81.8,0,22.5,0,46.1,0,15.4,0,8.8,0,23.1,0
2005/1/1,9:45,-1.4,0,83,0,22.6,0,48.9,0,15.3,0,7.8,0,23.1,0
2005/1/1,10:00,-1.5,0,85.3,0,22.6,0,47,0,15.2,0,7.9,0,22.7,0
2005/1/1,10:15,-1.6,0,87.9,0,22.7,0,47.9,0,15.2,0,8,0,22.6,0
2005/1/1,10:30,-1.7,0,89.1,0,22.7,0,45.5,0,15.2,0,8.2,0,22.4,0
2005/1/1,10:45,-1.7,0,90.3,0,22.5,0,44.9,0,15.2,0,8.5,0,22.1,0
2005/1/1,11:00,-1.6,0,90.1,0,22.6,0,45.8,0,15.2,0,8.3,0,21.8,0
2005/1/1,11:15,-1.5,0,89.9,0,22.6,0,47.4,0,15.2,0,8.4,0,21.6,0
2005/1/1,11:30,-1.3,0,88.8,0,22.6,0,45,0,15.2,0,8.1,0,21.9,0
2005/1/1,11:45,-0.9,0,85.8,0,22.6,0,46.2,0,15.1,0,8.2,0,22.5,0
2005/1/1,12:00,-1,0,85.1,0,22.7,0,49.6,0,15.1,0,8.4,0,22.6,0
2005/1/1,12:15,-0.6,0,83.2,0,22.7,0,49.4,0,15.1,0,8.6,0,22.6,0
2005/1/1,12:30,-0.6,0,84.5,0,22.6,0,45.9,0,15.1,0,8.8,0,22.3,0
2005/1/1,12:45,-0.6,0,83.6,0,22.6,0,46.1,0,15.1,0,8.9,0,22.1,0
2005/1/1,13:00,-0.7,0,82.8,0,22.7,0,46.4,0,15.2,0,7.9,0,22,0
2005/1/1,13:15,-0.7,0,79.5,0,22.7,0,45.7,0,15.3,0,7.9,0,21.9,0
2005/1/1,13:30,-1.1,0,82.5,0,22.7,0,46.2,0,15.4,0,8.1,0,22,0
2005/1/1,13:45,-1.5,0,86.3,0,22.7,0,44,0,15.3,0,8.3,0,21.9,0
2005/1/1,14:00,-1.3,0,82.2,0,22.8,0,44.8,0,15.2,0,8.5,0,21.9,0
2005/1/1,14:15,-0.8,0,79.3,0,22.8,0,43.8,0,15.1,0,8.7,0,21.9,0
2005/1/1,14:30,-0.8,0,80.4,0,22.6,0,36.9,0,15,0,8.5,0,21.8,0
2005/1/1,14:45,-1.1,0,78.8,0,21.9,0,35.4,0,15,0,7.9,0,21.4,0
2005/1/1,15:00,-1.2,0,82,0,21.7,0,36.9,0,15,0,7.6,0,21.1,0
2005/1/1,15:15,-1.4,0,85,0,21.7,0,41.2,0,14.9,0,7.5,0,21.1,0
2005/1/1,15:30,-1.1,0,80.4,0,21.7,0,44.3,0,14.9,0,7.7,0,21,0
2005/1/1,15:45,-1.2,0,80,0,21.7,0,44,0,14.8,0,7.9,0,20.9,0
2005/1/1,16:00,-1.2,0,78.3,0,21.7,0,44.1,0,14.8,0,8.1,0,20.9,0
2005/1/1,16:15,-0.7,0,73.6,0,21.6,0,42.9,0,14.8,0,8.1,0,20.7,0
2005/1/1,16:30,-1.2,0,74.2,0,21.5,0,42.2,0,14.7,0,8.2,0,20.5,0
2005/1/1,16:45,-1.2,0,78.4,0,21.4,0,41.8,0,14.7,0,8.4,0,20.4,0
2005/1/1,17:00,-1.6,0,82.7,0,21.3,0,42.3,0,14.8,0,8.5,0,20.3,0
2005/1/1,17:15,-1.6,0,78.7,0,21.3,0,42.7,0,14.9,0,8.7,0,20.2,0
2005/1/1,17:30,-0.8,0,69.8,0,21.2,0,41.5,0,14.9,0,9,0,20.1,0
2005/1/1,17:45,-1.1,0,64.6,0,21.1,0,40.4,0,14.9,0,9,0,20,0
2005/1/1,18:00,-1,0,64.5,0,21,0,42.1,0,14.8,0,9.1,0,20,0
2005/1/1,18:15,-1.2,0,67.6,0,21,0,42.5,0,14.7,0,9.3,0,20,0
2005/1/1,18:30,-1.4,0,76.6,0,21.1,0,44.3,0,14.7,0,9.4,0,20.4,0
2005/1/1,18:45,-1.7,0,83.1,0,21.1,0,45.8,0,14.7,0,9.6,0,21.2,0
2005/1/1,19:00,-1.9,0,83.9,0,21.1,0,46.5,0,14.7,0,9.7,0,21.3,0
2005/1/1,19:15,-1.6,0,82.2,0,21.2,0,46.1,0,14.7,0,9.9,0,21.6,0
2005/1/1,19:30,-1.3,0,72.5,0,21.4,0,45.2,0,14.6,0,10.1,0,21.3,0
2005/1/1,19:45,-0.9,0,66.8,0,21.4,0,45.6,0,14.5,0,10.3,0,21.4,0
2005/1/1,20:00,-1,0,75.3,0,21.5,0,45.9,0,14.5,0,10.5,0,21.6,0
2005/1/1,20:15,-1,0,75.6,0,21.6,0,46,0,14.5,0,9.8,0,21.9,0
2005/1/1,20:30,-1,0,76.7,0,21.6,0,45.7,0,14.4,0,9.5,0,22,0
2005/1/1,20:45,-1.2,0,78.9,0,21.7,0,46.5,0,14.4,0,9.6,0,21.8,0
2005/1/1,21:00,-1.4,0,79.4,0,21.7,0,46.2,0,14.4,0,9.7,0,21.6,0
2005/1/1,21:15,-1.6,0,71,0,21.7,0,45.9,0,14.4,0,9.8,0,21.4,0
2005/1/1,21:30,-0.7,0,59.2,0,21.7,0,45.1,0,14.4,0,8.2,0,21.1,0
2005/1/1,21:45,-0.5,0,61.1,0,21.6,0,44.3,0,14.4,0,7.5,0,20.8,0
2005/1/1,22:00,-0.7,0,73.5,0,21.5,0,43.7,0,14.5,0,7.6,0,20.6,0
2005/1/1,22:15,-1.1,0,77.1,0,21.4,0,43.7,0,14.5,0,7.8,0,20.4,0
2005/1/1,22:30,-1,0,67.9,0,21.3,0,43.3,0,14.5,0,8,0,20.3,0
2005/1/1,22:45,-1.3,0,64.6,0,21.2,0,42.8,0,14.5,0,8.2,0,20.2,0
2005/1/1,23:00,-1.1,0,71.5,0,20.9,0,41.1,0,14.4,0,8.1,0,20,0
2005/1/1,23:15,-1.3,0,79.3,0,20.8,0,41.7,0,14.4,0,8.3,0,19.8,0
2005/1/1,23:30,-1,0,69.8,0,20.7,0,43,0,14.4,0,8.4,0,19.7,0
2005/1/1,23:45,-0.4,0,63.3,0,20.6,0,43.1,0,14.4,0,8.6,0,19.6,0
2005/1/2,0:00,-0.4,0,66.6,0,20.5,0,43.5,0,14.3,0,8.8,0,19.4,0
2005/1/2,0:15,-0.8,0,75.4,0,20.4,0,43.7,0,14.3,0,9,0,19.3,0
2005/1/2,0:30,-1.1,0,72.3,0,20.3,0,44.1,0,14.3,0,9.1,0,19.2,0
2005/1/2,0:45,-0.6,0,71.8,0,20.2,0,44.5,0,14.3,0,9.3,0,19.1,0
2005/1/2,1:00,-0.2,0,72.4,0,20.1,0,44.6,0,14.3,0,9.5,0,19,0
2005/1/2,1:15,0.1,0,68.9,0,20,0,44.6,0,14.3,0,9.7,0,19,0
2005/1/2,1:30,0.1,0,77.8,0,20,0,44.1,0,14.4,0,9.9,0,19,0
2005/1/2,1:45,0,0,76,0,19.9,0,44.6,0,14.4,0,10.1,0,18.9,0
2005/1/2,2:00,0.5,0,67.9,0,19.9,0,44.5,0,14.4,0,10.3,0,18.8,0
2005/1/2,2:15,0.2,0,74.1,0,19.9,0,44.5,0,14.4,0,10.5,0,18.9,0
2005/1/2,2:30,-0.1,0,75.7,0,19.9,0,44.3,0,14.4,0,10.7,0,18.9,0
2005/1/2,2:45,0,0,79.4,0,19.9,0,44.1,0,14.4,0,10.9,0,19,0
2005/1/2,3:00,-1.1,0,88.8,0,20,0,44.4,0,14.4,0,11.1,0,19.1,0
2005/1/2,3:15,-1.1,0,84.4,0,20,0,44,0,14.5,0,11.2,0,19.1,0
2005/1/2,3:30,-0.1,0,79,0,20.1,0,43.2,0,14.5,0,11.4,0,19.1,0
2005/1/2,3:45,0.3,0,73,0,20.1,0,42.9,0,14.5,0,11.6,0,19.1,0
2005/1/2,4:00,0.2,0,77.4,0,20.2,0,42.7,0,14.5,0,11.8,0,19.1,0
2005/1/2,4:15,0.3,0,69.6,0,20.2,0,42.8,0,14.5,0,11.9,0,19.1,0
2005/1/2,4:30,0.9,0,65.2,0,20.2,0,42.6,0,14.4,0,12.1,0,19.2,0
2005/1/2,4:45,1.2,0,60,0,20.3,0,42.5,0,14.4,0,12.2,0,19.3,0
2005/1/2,5:00,1.4,0,56.8,0,20.3,0,42.3,0,14.4,0,12.4,0,19.3,0
2005/1/2,5:15,1.5,0,57.7,0,20.4,0,41.8,0,14.4,0,12.5,0,19.3,0
2005/1/2,5:30,1.5,0,59.1,0,20.4,0,41.5,0,14.5,0,12.7,0,19.3,0
2005/1/2,5:45,1.4,0,57.1,0,20.4,0,41.7,0,14.5,0,12.8,0,19.3,0
2005/1/2,6:00,1.6,0,64.7,0,20.4,0,41.2,0,14.5,0,12.9,0,19.3,0
2005/1/2,6:15,1.2,0,73.5,0,20.4,0,41,0,14.5,0,13,0,19.4,0
2005/1/2,6:30,0.9,0,74.1,0,20.5,0,40.8,0,14.5,0,13.2,0,19.4,0
2005/1/2,6:45,1.3,0,69.8,0,20.4,0,41.3,0,14.7,0,13.3,0,19.2,0
2005/1/2,7:00,1.4,0,65.3,0,20.4,0,41.9,0,15.3,0,13.4,0,19.1,0
2005/1/2,7:15,1.7,0,61.3,0,20.4,0,41.9,0,15.6,0,13.5,0,19.1,0
2005/1/2,7:30,1.6,0,69.8,0,20.4,0,42.4,0,15.9,0,13.6,0,19.1,0
2005/1/2,7:45,1.5,0,69.2,0,20.5,0,42.4,0,15.9,0,13.7,0,19.3,0
2005/1/2,8:00,1.6,0,67.6,0,20.6,0,43.6,0,15.9,0,13.8,0,19.5,0
2005/1/2,8:15,2,0,66.1,0,20.8,0,44.7,0,15.9,0,13.9,0,20.4,0
2005/1/2,8:30,1.2,0,76.4,0,21,0,48.2,0,15.9,0,9.5,0,21.6,0
2005/1/2,8:45,2,0,68.5,0,21.1,0,48.1,0,16,0,9.5,0,21.8,0
2005/1/2,9:00,2.4,0,64.1,0,21.3,0,47.8,0,16.1,0,9.6,0,22,0
2005/1/2,9:15,2.6,0,67.3,0,21.5,0,47.1,0,16.2,0,9.8,0,22,0
2005/1/2,9:30,3.2,0,65.6,0,21.6,0,46.8,0,16.3,0,9.9,0,21.7,0
2005/1/2,9:45,2.6,0,70.4,0,21.9,0,49.7,0,16.3,0,10.1,0,21.5,0
2005/1/2,10:00,3.4,0,63.4,0,22,0,47.9,0,16.4,0,10.2,0,21.4,0
2005/1/2,10:15,3.4,0,59.9,0,22.1,0,48,0,16.4,0,10.4,0,21.3,0
2005/1/2,10:30,3.7,0,55.5,0,22.2,0,48.3,0,16.4,0,9.2,0,21.6,0
2005/1/2,10:45,3.8,0,54.6,0,22.3,0,49,0,16.3,0,9.1,0,22,0
2005/1/2,11:00,3.8,0,58.1,0,22,0,42.5,0,16.3,0,9.2,0,21.8,0
2005/1/2,11:15,3.8,0,57.8,0,22,0,45.7,0,16.2,0,9.3,0,21.5,0
2005/1/2,11:30,3.3,0,66.9,0,22.1,0,48.8,0,16.2,0,9.5,0,22.1,0
2005/1/2,11:45,3.9,0,64.1,0,21.8,0,41.8,0,16.1,0,8.6,0,22.1,0
2005/1/2,12:00,4.2,0,62.2,0,22.1,0,43.8,0,16.5,0,7.7,0,21.8,0
2005/1/2,12:15,5.1,0,57.7,0,22.1,0,44.5,0,16.7,0,7.7,0,22.4,0
2005/1/2,12:30,4.4,0,61.3,0,22.4,0,44.3,0,16.9,0,7.9,0,23.4,0
2005/1/2,12:45,4.1,0,62.1,0,22.5,0,43,0,17,0,8,0,24,0
2005/1/2,13:00,4.2,0,58.3,0,22.6,0,44,0,17,0,8.2,0,24.1,0
2005/1/2,13:15,3.6,0,71,0,22.8,0,45,0,16.9,0,8.4,0,24.6,0
2005/1/2,13:30,2.8,0,78.8,0,22.8,0,45.3,0,16.9,0,8.6,0,24.7,0
2005/1/2,13:45,3.2,0,76.8,0,22.9,0,45,0,16.8,0,8.8,0,24.2,0
2005/1/2,14:00,4,0,72.5,0,23,0,43.8,0,16.9,0,9,0,23.7,0
2005/1/2,14:15,4.1,0,71.1,0,23.2,0,44,0,17.4,0,9.2,0,23.6,0
2005/1/2,14:30,3.6,0,72.8,0,23.2,0,43.3,0,17.5,0,9.4,0,23.4,0
2005/1/2,14:45,3.7,0,72.7,0,23.1,0,43.1,0,17.5,0,9.6,0,23.2,0
2005/1/2,15:00,4,0,67.5,0,23.2,0,42.8,0,17.5,0,9.8,0,23.1,0
2005/1/2,15:15,4.1,0,64.9,0,22.9,0,39.6,0,17.6,0,8.5,0,22.8,0
2005/1/2,15:30,4.4,0,64,0,22.8,0,40.8,0,17.5,0,8.2,0,22.6,0
2005/1/2,15:45,3.9,0,67.9,0,22.8,0,40.6,0,17.5,0,8.3,0,22.4,0
2005/1/2,16:00,3.5,0,70.8,0,22.7,0,40,0,17.3,0,8.5,0,22.2,0
2005/1/2,16:15,3.7,0,70.9,0,22.6,0,39.9,0,17.2,0,8.7,0,22.1,0
2005/1/2,16:30,4,0,76.9,0,22.5,0,38.9,0,17.1,0,8.9,0,21.9,0
2005/1/2,16:45,3.7,0,76.8,0,22.2,0,38.3,0,17,0,9.1,0,21.4,0
2005/1/2,17:00,3.5,0,75.9,0,22.1,0,41.3,0,16.9,0,8.9,0,21.1,0
2005/1/2,17:15,3.3,0,77.7,0,22,0,41.8,0,16.8,0,8.8,0,21,0
2005/1/2,17:30,2.8,0,81.6,0,22,0,41.4,0,16.7,0,9,0,20.9,0
2005/1/2,17:45,2.9,0,82.1,0,21.9,0,41.2,0,16.6,0,9.1,0,20.7,0
2005/1/2,18:00,2.8,0,83.2,0,21.8,0,41.1,0,16.6,0,9.3,0,20.6,0
2005/1/2,18:15,2.5,0,83.6,0,21.7,0,40.5,0,16.5,0,9.4,0,20.5,0
2005/1/2,18:30,2.4,0,83.3,0,21.6,0,40.1,0,16.4,0,9.6,0,20.3,0
2005/1/2,18:45,2.3,0,84.4,0,21.5,0,40,0,16.3,0,9.8,0,20.2,0
2005/1/2,19:00,2.3,0,85.6,0,21.4,0,39.9,0,16.2,0,9.9,0,20.1,0
2005/1/2,19:15,2.5,0,84.7,0,21.3,0,39.4,0,16.1,0,10.2,0,20,0
2005/1/2,19:30,2.4,0,84.8,0,21.3,0,39.2,0,16.1,0,10.4,0,19.9,0
2005/1/2,19:45,2.3,0,84.8,0,21.2,0,39,0,16,0,10.6,0,19.9,0
2005/1/2,20:00,2.1,0,85.8,0,21.1,0,38.8,0,15.9,0,10.8,0,19.8,0
2005/1/2,20:15,2.5,0,85.4,0,21,0,38.6,0,15.8,0,11,0,19.7,0
2005/1/2,20:30,2.5,0,86.2,0,20.7,0,39.7,0,15.7,0,11.2,0,19.6,0
2005/1/2,20:45,2.4,0,86.1,0,20.7,0,41,0,15.6,0,11.4,0,19.8,0
2005/1/2,21:00,2.1,0,85.8,0,20.8,0,40.8,0,15.5,0,11.6,0,20.3,0
2005/1/2,21:15,1.3,0,87.7,0,20.9,0,43.3,0,15.3,0,11.7,0,21.1,0
2005/1/2,21:30,1.2,0,89.3,0,20.9,0,42.2,0,15.2,0,11.9,0,21.1,0
2005/1/2,21:45,1.4,0,90.3,0,21,0,42.2,0,15,0,9.8,0,21.2,0
2005/1/2,22:00,1.5,0,89.2,0,21,0,42,0,14.9,0,9.4,0,21.1,0
2005/1/2,22:15,1,0,89.9,0,20.9,0,40.7,0,14.8,0,9.5,0,21.1,0
2005/1/2,22:30,0.6,0,91,0,21.1,0,43.1,0,14.7,0,9.6,0,21,0
2005/1/2,22:45,0.9,0,91.8,0,21.1,0,42.9,0,14.7,0,9.8,0,20.9,0
2005/1/2,23:00,1,0,92.1,0,21,0,41.6,0,14.6,0,8.4,0,20.7,0
2005/1/2,23:15,0.8,0,92.2,0,21.2,0,44.4,0,14.5,0,6.7,0,21.2,0
2005/1/2,23:30,1.1,0,92.2,0,20.9,0,41.6,0,14.5,0,6.9,0,21.1,0
2005/1/2,23:45,1.1,0,92.3,0,21.4,0,42,0,14.5,0,7.1,0,21.3,0
2005/1/3,0:00,2.6,0,88,0,21.7,0,41.8,0,14.5,0,7.3,0,21.5,0
2005/1/3,0:15,3.4,0,83.4,0,21.9,0,41.3,0,14.5,0,7.5,0,21.6,0
2005/1/3,0:30,3.8,0,79.8,0,22.1,0,40.4,0,14.5,0,7.7,0,21.6,0
2005/1/3,0:45,3.5,0,81.6,0,22,0,38.7,0,14.5,0,7.6,0,21.3,0
2005/1/3,1:00,4,0,80.4,0,21.9,0,38.9,0,14.5,0,7.7,0,21.5,0
2005/1/3,1:15,3.9,0,80.4,0,21.8,0,40.3,0,14.4,0,7.9,0,21.9,0
2005/1/3,1:30,4.1,0,79.4,0,21.8,0,42.1,0,14.4,0,8.1,0,21.6,0
2005/1/3,1:45,4,0,80.8,0,21.8,0,41.1,0,14.4,0,8.3,0,21.4,0
2005/1/3,2:00,3.7,0,83.8,0,21.7,0,40.2,0,14.4,0,8.5,0,21.2,0
2005/1/3,2:15,3.3,0,87.4,0,21.6,0,40.1,0,14.3,0,8.5,0,21.1,0
2005/1/3,2:30,4,0,82.7,0,21.7,0,41.2,0,14.3,0,8,0,21,0
2005/1/3,2:45,4.3,0,79.2,0,21.7,0,41.5,0,14.3,0,8.1,0,20.8,0
2005/1/3,3:00,4.1,0,80.8,0,21.7,0,41,0,14.3,0,8.3,0,20.6,0
2005/1/3,3:15,3.7,0,84.4,0,21.6,0,40.6,0,14.4,0,8.5,0,20.4,0
2005/1/3,3:30,3.7,0,86.5,0,21.7,0,40.3,0,14.4,0,8.7,0,20.3,0
2005/1/3,3:45,3.9,0,85.2,0,21.7,0,40.1,0,14.4,0,8.8,0,20.2,0
2005/1/3,4:00,4,0,84.7,0,21.7,0,39.7,0,14.5,0,9,0,20.2,0
2005/1/3,4:15,4,0,84.4,0,21.7,0,39.4,0,14.5,0,9.2,0,20.2,0
2005/1/3,4:30,4.1,0,83.5,0,21.7,0,38.8,0,14.6,0,9.4,0,20.4,0
2005/1/3,4:45,3.3,0,84.3,0,21.7,0,38.8,0,14.6,0,9.6,0,20.4,0
2005/1/3,5:00,2.9,0,89.1,0,21.7,0,38.7,0,14.7,0,9.8,0,20.4,0
2005/1/3,5:15,3.3,0,89.3,0,21.7,0,38.6,0,14.8,0,10,0,20.4,0
2005/1/3,5:30,3.6,0,87.8,0,21.7,0,38.5,0,14.8,0,10.2,0,20.4,0
2005/1/3,5:45,3.4,0,90.1,0,21.7,0,38.5,0,14.9,0,10.4,0,20.4,0
2005/1/3,6:00,3.3,0,91.7,0,21.7,0,38.4,0,14.9,0,10.6,0,20.3,0
2005/1/3,6:15,3.2,0,91.6,0,21.7,0,38.4,0,15,0,10.8,0,20.4,0
2005/1/3,6:30,3.4,0,91.1,0,21.8,0,38.2,0,15,0,11,0,20.5,0
2005/1/3,6:45,3.3,0,90.3,0,21.8,0,38.9,0,15,0,11.2,0,20.6,0
2005/1/3,7:00,3.9,0,85.1,0,21.9,0,39.8,0,15.1,0,11.4,0,20.7,0
2005/1/3,7:15,4,0,80.2,0,22,0,39.9,0,15.1,0,11.6,0,20.7,0
2005/1/3,7:30,3.4,0,83.1,0,22.1,0,38.8,0,15.2,0,8.4,0,20.8,0
2005/1/3,7:45,5.2,0,71.8,0,22.2,0,39.4,0,15.6,0,8.4,0,20.9,0
2005/1/3,8:00,5.7,0,67.6,0,22.4,0,40.4,0,15.9,0,8.5,0,21.1,0
2005/1/3,8:15,6.3,0,64,0,22.6,0,42.1,0,16.1,0,8.7,0,22.3,0
2005/1/3,8:30,6.8,0,59.8,0,23,0,41.8,0,16.3,0,8.9,0,22.8,0
2005/1/3,8:45,7.4,0,56.3,0,23.5,0,40.8,0,16.5,0,9.1,0,23,0
2005/1/3,9:00,7.6,0,54.6,0,23.9,0,38.5,0,16.6,0,7.7,0,23,0
2005/1/3,9:15,7.8,0,54.3,0,24.1,0,37.5,0,16.6,0,7.9,0,23,0
2005/1/3,9:30,8,0,53.8,0,24.3,0,36.2,0,16.6,0,7.9,0,23,0
2005/1/3,9:45,8,0,51,0,24.5,0,36.1,0,16.9,0,6.9,0,23.2,0
2005/1/3,10:00,8.2,0,46.4,0,24.6,0,35.8,0,17,0,7.1,0,23.4,0
2005/1/3,10:15,8.1,0,45.5,0,24.6,0,35.3,0,17.1,0,7.3,0,23.6,0
2005/1/3,10:30,8.1,0,43.3,0,24.5,0,36.6,0,17.1,0,7.5,0,23.7,0
2005/1/3,10:45,8,0,43.5,0,24.6,0,37.3,0,17.2,0,7.7,0,23.7,0
2005/1/3,11:00,8.3,0,44.1,0,24.5,0,36.9,0,17.2,0,7.3,0,23.7,0
2005/1/3,11:15,8.7,0,43.1,0,24.4,0,35,0,17.4,0,7.4,0,23.5,0
2005/1/3,11:30,8.8,0,42.9,0,24.5,0,35.2,0,18,0,7.6,0,23.2,0
2005/1/3,11:45,8.7,0,43.3,0,24.4,0,35.2,0,18.4,0,7.8,0,23,0
2005/1/3,12:00,8.4,0,43.9,0,24.2,0,34.2,0,18.8,0,8,0,22.7,0
2005/1/3,12:15,8.1,0,44.6,0,24.1,0,35.3,0,19,0,7.4,0,22.5,0
2005/1/3,12:30,8.1,0,45.4,0,24,0,34.9,0,19.1,0,7.6,0,22.5,0
2005/1/3,12:45,8.1,0,46.7,0,23.8,0,34.6,0,19.2,0,7.1,0,22.4,0
2005/1/3,13:00,8.5,0,47.7,0,23.7,0,35.2,0,19.3,0,7.3,0,22.2,0
2005/1/3,13:15,9,0,48.6,0,23.6,0,35.3,0,19.4,0,7.3,0,22.2,0
2005/1/3,13:30,8.9,0,51.2,0,23.7,0,37.4,0,19.7,0,7.5,0,22.2,0
2005/1/3,13:45,8.4,0,52.5,0,23.7,0,38.4,0,19.9,0,7.7,0,22.3,0
2005/1/3,14:00,8.4,0,52.9,0,23.6,0,38.6,0,19.9,0,7.9,0,22.2,0
2005/1/3,14:15,8.2,0,54.1,0,23.5,0,38.8,0,19.9,0,8.1,0,22.1,0
2005/1/3,14:30,8.1,0,56.6,0,23.4,0,39,0,19.9,0,8.4,0,22,0
2005/1/3,14:45,7.5,0,62.5,0,23.4,0,39.3,0,19.9,0,8.6,0,21.9,0
2005/1/3,15:00,6.8,0,68.4,0,23.3,0,39.4,0,19.8,0,8.8,0,21.8,0
2005/1/3,15:15,6.8,0,69.5,0,23.2,0,39.6,0,19.8,0,9,0,21.7,0
2005/1/3,15:30,6.5,0,72.5,0,23.1,0,40.2,0,19.8,0,9.3,0,21.6,0
2005/1/3,15:45,6.2,0,77.3,0,23,0,40.3,0,19.7,0,9.5,0,21.5,0
2005/1/3,16:00,5.9,0,82,0,22.9,0,40.4,0,19.7,0,9.7,0,21.5,0
2005/1/3,16:15,5.5,0,85.4,0,22.8,0,40.8,0,19.6,0,9.9,0,21.5,0
2005/1/3,16:30,5.5,0,84.6,0,22.7,0,41,0,19.6,0,10.2,0,21.4,0
2005/1/3,16:45,5.4,0,82.8,0,22.6,0,41.1,0,19.5,0,10.4,0,21.4,0
2005/1/3,17:00,4.5,0,85.4,0,22.6,0,41.1,0,19.5,0,10.7,0,21.4,0
2005/1/3,17:15,3.5,0,88.2,0,22.5,0,41.5,0,19.5,0,10.9,0,21.3,0
2005/1/3,17:30,4,0,90.3,0,22.4,0,41,0,19.4,0,11.1,0,21.2,0
2005/1/3,17:45,2.8,0,89.6,0,22.3,0,41.2,0,19.4,0,11.3,0,21.2,0
2005/1/3,18:00,3.1,0,91.3,0,22.3,0,41.4,0,19.4,0,11.6,0,21.2,0
2005/1/3,18:15,2.7,0,91.2,0,22.2,0,41.3,0,19.3,0,11.8,0,21.1,0
2005/1/3,18:30,2.2,0,91.7,0,22.1,0,41.4,0,19.3,0,12,0,21,0
2005/1/3,18:45,2.2,0,91.7,0,22.4,0,41,0,19.2,0,12.2,0,21,0
2005/1/3,19:00,2.2,0,92.2,0,22.4,0,40.1,0,19.1,0,12.3,0,21.8,0
2005/1/3,19:15,2.3,0,92.5,0,22.4,0,39.1,0,19,0,12.6,0,22.3,0
2005/1/3,19:30,3,0,90,0,22.4,0,40.4,0,18.9,0,12.7,0,22.6,0
2005/1/3,19:45,6.5,0,73.7,0,22.4,0,42.4,0,18.9,0,12.9,0,22.5,0
2005/1/3,20:00,7,0,73,0,22.6,0,46,0,18.7,0,13.1,0,23.3,0
2005/1/3,20:15,6.6,0,76,0,22.6,0,46.5,0,18.5,0,13.2,0,23,0
2005/1/3,20:30,6.3,0,79.7,0,22.6,0,47.5,0,18.4,0,13.4,0,22.8,0
2005/1/3,20:45,6.3,0,79.4,0,22.7,0,47.6,0,18.2,0,13.5,0,22.6,0
2005/1/3,21:00,6.6,0,77.1,0,22.7,0,46.9,0,18.1,0,13.7,0,22.2,0
2005/1/3,21:15,6.9,0,74.3,0,22.6,0,46,0,18,0,13.8,0,21.8,0
2005/1/3,21:30,6.9,0,75.3,0,22.6,0,46.4,0,17.9,0,10.5,0,21.5,0
2005/1/3,21:45,6.9,0,76.2,0,22.6,0,45.9,0,17.8,0,8.1,0,21.3,0
2005/1/3,22:00,7,0,78.3,0,22.5,0,44.8,0,18,0,8,0,21,0
2005/1/3,22:15,7,0,79.9,0,22.4,0,47.3,0,18.1,0,8.1,0,21,0
2005/1/3,22:30,7.2,0,77.4,0,22.3,0,48.8,0,18.1,0,8.3,0,20.9,0
2005/1/3,22:45,7.2,0,76.7,0,22.2,0,49,0,18,0,8.5,0,20.8,0
2005/1/3,23:00,6.6,0,81.7,0,22.2,0,48.8,0,18,0,8.7,0,20.7,0
2005/1/3,23:15,6.8,0,79.7,0,22.1,0,49,0,18,0,8.9,0,20.7,0
2005/1/3,23:30,7,0,77.2,0,22,0,49.1,0,18,0,9.1,0,20.6,0
2005/1/3,23:45,7.2,0,75.2,0,21.9,0,48.8,0,18,0,9.3,0,20.6,0
2005/1/4,0:00,6.4,0,82.2,0,21.9,0,48.5,0,18,0,9.6,0,20.5,0
2005/1/4,0:15,6.3,0,87.6,0,21.9,0,49.2,0,18,0,9.8,0,20.4,0
2005/1/4,0:30,7,0,85.9,0,21.8,0,48.9,0,18,0,10,0,20.3,0
2005/1/4,0:45,7,0,86.4,0,21.8,0,49,0,18.1,0,10.2,0,20.3,0
2005/1/4,1:00,7.1,0,84.9,0,21.8,0,48.8,0,18.1,0,10.5,0,20.3,0
2005/1/4,1:15,7.1,0,86.6,0,21.8,0,48.5,0,18.1,0,10.7,0,20.3,0
2005/1/4,1:30,7.4,0,84.9,0,21.8,0,48.2,0,18.1,0,10.9,0,20.3,0
2005/1/4,1:45,7.4,0,83.2,0,21.8,0,47.9,0,18.2,0,11.1,0,20.3,0
2005/1/4,2:00,7.3,0,83.5,0,21.8,0,47.7,0,18.2,0,11.3,0,20.3,0
2005/1/4,2:15,7.5,0,83.3,0,21.9,0,47.4,0,18.2,0,11.6,0,20.3,0
2005/1/4,2:30,7.7,0,82.4,0,21.9,0,47.1,0,18.2,0,11.8,0,20.4,0
2005/1/4,2:45,7.9,0,81.7,0,21.9,0,46.8,0,18.2,0,12,0,20.4,0
2005/1/4,3:00,7.5,0,82.2,0,22,0,46.5,0,18.2,0,12.1,0,20.4,0
2005/1/4,3:15,6.9,0,85,0,22.1,0,46.1,0,18.2,0,12.3,0,20.5,0
2005/1/4,3:30,7.1,0,86.6,0,22.1,0,45.8,0,18.2,0,12.5,0,20.7,0
2005/1/4,3:45,7.6,0,83.8,0,22.2,0,45.5,0,18.2,0,12.7,0,20.8,0
2005/1/4,4:00,7.4,0,84,0,22.2,0,45.3,0,18.2,0,12.9,0,20.8,0
2005/1/4,4:15,6.2,0,86.1,0,22.3,0,45,0,18.2,0,13,0,20.8,0
2005/1/4,4:30,6.1,0,85,0,22.4,0,44.8,0,18.3,0,13.2,0,21,0
2005/1/4,4:45,6.3,0,83.4,0,22.4,0,44.5,0,18.2,0,13.3,0,21.1,0
2005/1/4,5:00,6.6,0,85.1,0,22.5,0,44.1,0,18.2,0,13.5,0,21.2,0
2005/1/4,5:15,6.6,0,87.6,0,22.6,0,43.8,0,18.2,0,13.6,0,21.2,0
2005/1/4,5:30,6.4,0,87.9,0,22.6,0,43.6,0,18.2,0,13.7,0,21.3,0
2005/1/4,5:45,6.5,0,85.9,0,22.6,0,43.5,0,18.2,0,13.9,0,21.3,0
2005/1/4,6:00,6.7,0,85.8,0,22.7,0,43.2,0,18.2,0,14,0,21.3,0
2005/1/4,6:15,6.7,0,86.5,0,22.7,0,43.3,0,18.2,0,14.1,0,21.3,0
2005/1/4,6:30,6.9,0,84.8,0,22.8,0,42.9,0,18.2,0,14.3,0,21.4,0
2005/1/4,6:45,6.6,0,84.6,0,22.9,0,43.6,0,18.3,0,12.1,0,21.5,0
2005/1/4,7:00,6.2,0,85.1,0,22.9,0,42.7,0,18.4,0,8.5,0,22.7,0
2005/1/4,7:15,5.9,0,86,0,23,0,43.6,0,18.8,0,8.6,0,23.4,0
2005/1/4,7:30,5.4,0,89.1,0,23.1,0,45,0,19.1,0,8.8,0,23.4,0
2005/1/4,7:45,5.1,0,89.7,0,23.2,0,43.8,0,19.3,0,8.3,0,23.3,0
2005/1/4,8:00,4.9,0,88.6,0,23.2,0,44.2,0,19.2,0,7.7,0,23,0
2005/1/4,8:15,4.7,0,88.7,0,23.3,0,45.2,0,19.2,0,7.9,0,22.9,0
2005/1/4,8:30,4.6,0,88.5,0,23.4,0,45.7,0,19.1,0,8.1,0,22.9,0
2005/1/4,8:45,4.6,0,87.8,0,23.5,0,45.6,0,19,0,8.3,0,22.9,0
2005/1/4,9:00,4.7,0,86.3,0,23.5,0,45.9,0,18.9,0,8.5,0,22.8,0
2005/1/4,9:15,4.5,0,88.2,0,23.6,0,45.7,0,18.8,0,8.8,0,22.8,0
2005/1/4,9:30,4.4,0,88.9,0,23.6,0,45.2,0,18.7,0,9,0,22.8,0
2005/1/4,9:45,4.2,0,86.9,0,23.6,0,45.1,0,18.7,0,9.2,0,22.8,0
2005/1/4,10:00,3.8,0,88.9,0,23.7,0,44.7,0,18.6,0,9.4,0,22.8,0
2005/1/4,10:15,4,0,84.2,0,23.7,0,44.4,0,18.6,0,9.6,0,22.8,0
2005/1/4,10:30,4,0,86.5,0,23.6,0,44,0,18.5,0,9.9,0,22.7,0
2005/1/4,10:45,3.6,0,88.5,0,23.6,0,43.8,0,18.5,0,10.1,0,22.7,0
2005/1/4,11:00,3.5,0,85,0,23.6,0,43.6,0,18.4,0,10.3,0,22.7,0
2005/1/4,11:15,3.4,0,81.3,0,23.6,0,43.4,0,18.4,0,10.6,0,22.7,0
2005/1/4,11:30,3.5,0,78.7,0,23.6,0,43.2,0,18.4,0,10.9,0,22.7,0
2005/1/4,11:45,3.1,0,81.3,0,23.6,0,43,0,18.3,0,11.1,0,22.6,0
2005/1/4,12:00,3.5,0,74.9,0,23.5,0,42.8,0,18.3,0,11.3,0,22.6,0
2005/1/4,12:15,3.1,0,77.8,0,23.5,0,42.5,0,18.2,0,11.5,0,22.5,0
2005/1/4,12:30,2.9,0,75,0,23.5,0,42.3,0,18.2,0,11.7,0,22.5,0
2005/1/4,12:45,3.7,0,65.3,0,23.4,0,43.2,0,18.2,0,11.9,0,22.8,0
2005/1/4,13:00,3.8,0,73,0,23.4,0,43.5,0,18.1,0,12.1,0,23.2,0
2005/1/4,13:15,2.8,0,84.2,0,23.4,0,41.9,0,18.1,0,12.3,0,23.2,0
2005/1/4,13:30,2.4,0,79.1,0,23.3,0,42,0,18.1,0,9.8,0,22.9,0
2005/1/4,13:45,2.8,0,78.9,0,23.3,0,42.2,0,18,0,9.9,0,22.6,0
2005/1/4,14:00,2.2,0,85,0,23.2,0,42.6,0,18,0,8.3,0,22.4,0
2005/1/4,14:15,2.2,0,81.9,0,23.2,0,43.2,0,17.9,0,8,0,22.3,0
2005/1/4,14:30,2.6,0,74.8,0,23.2,0,43.1,0,17.9,0,8.2,0,22.2,0
2005/1/4,14:45,2.6,0,69.3,0,23.1,0,42.8,0,17.8,0,8.4,0,22.1,0
2005/1/4,15:00,2.6,0,70.4,0,23.1,0,42.4,0,17.8,0,8.6,0,22.1,0
2005/1/4,15:15,2.8,0,64.5,0,23.1,0,42.3,0,17.7,0,8.8,0,22,0
2005/1/4,15:30,2.6,0,65.7,0,23,0,42.2,0,17.7,0,9,0,22,0
2005/1/4,15:45,2.7,0,63,0,23,0,41.9,0,17.7,0,9.2,0,22,0
2005/1/4,16:00,2.6,0,60.8,0,23,0,41.9,0,17.6,0,9.4,0,21.9,0
2005/1/4,16:15,2.1,0,66.5,0,22.9,0,42,0,17.6,0,9.6,0,21.9,0
2005/1/4,16:30,1.7,0,69.8,0,22.9,0,41.7,0,17.5,0,9.8,0,21.8,0
2005/1/4,16:45,1.1,0,73.6,0,22.8,0,41.5,0,17.5,0,8.6,0,21.8,0
2005/1/4,17:00,0.9,0,79,0,22.8,0,42,0,17.4,0,8.7,0,21.7,0
2005/1/4,17:15,0.3,0,84,0,22.8,0,41.9,0,17.4,0,8.8,0,21.7,0
2005/1/4,17:30,0.9,0,75.6,0,22.7,0,41.8,0,17.3,0,9,0,21.6,0
2005/1/4,17:45,1,0,76.5,0,22.7,0,41.7,0,17.3,0,9.2,0,21.6,0
2005/1/4,18:00,0.7,0,76.6,0,22.7,0,41.6,0,17.2,0,9.1,0,21.5,0
2005/1/4,18:15,0.8,0,70.9,0,22.4,0,38.6,0,17.2,0,9.2,0,21.4,0
2005/1/4,18:30,1,0,64.9,0,22.3,0,39.6,0,17.2,0,9.2,0,21.2,0
2005/1/4,18:45,0.5,0,71.1,0,22.2,0,40.2,0,17.2,0,9.3,0,21.8,0
2005/1/4,19:00,-0.2,0,77.9,0,22.1,0,38.2,0,17.1,0,8.7,0,22.2,0
2005/1/4,19:15,-0.1,0,71.2,0,21.9,0,38.2,0,16.9,0,8.4,0,22.4,0
2005/1/4,19:30,0.5,0,62.3,0,21.8,0,41.6,0,16.8,0,8.6,0,22.9,0
2005/1/4,19:45,0.5,0,56.5,0,21.9,0,43.5,0,16.7,0,8.8,0,23,0
2005/1/4,20:00,0.6,0,58.8,0,21.9,0,43.7,0,16.7,0,9,0,22.7,0
2005/1/4,20:15,0.5,0,63.6,0,22,0,43.7,0,16.6,0,9.1,0,22.4,0
2005/1/4,20:30,-0.1,0,67,0,22,0,42.8,0,16.5,0,9.1,0,22.1,0
2005/1/4,20:45,0.6,0,58.5,0,21.9,0,42.8,0,16.5,0,9.2,0,22.2,0
2005/1/4,21:00,0,0,69.1,0,21.9,0,44.5,0,16.4,0,9.3,0,22,0
2005/1/4,21:15,0.1,0,62.7,0,21.7,0,45,0,16.3,0,8.3,0,21.6,0
2005/1/4,21:30,-0.5,0,75.2,0,21.6,0,45.8,0,16.4,0,8.4,0,21.2,0
2005/1/4,21:45,-1.5,0,84.5,0,21.5,0,46.6,0,16.5,0,8.6,0,20.9,0
2005/1/4,22:00,-1.1,0,77.4,0,21.3,0,46.4,0,16.5,0,8.8,0,20.7,0
2005/1/4,22:15,-1.1,0,82.4,0,21.1,0,47,0,16.5,0,7.6,0,20.4,0
2005/1/4,22:30,-1.7,0,91.2,0,21,0,49.3,0,16.5,0,7.7,0,20.2,0
2005/1/4,22:45,-1.8,0,91.4,0,20.9,0,50,0,16.5,0,7.9,0,20.1,0
2005/1/4,23:00,-1.8,0,91.5,0,20.8,0,49.6,0,16.5,0,8.1,0,19.9,0
2005/1/4,23:15,-2.2,0,92.5,0,20.7,0,49.8,0,16.5,0,8.3,0,19.7,0
2005/1/4,23:30,-2.2,0,91.9,0,20.5,0,50,0,16.5,0,8.5,0,19.6,0
2005/1/4,23:45,-2.1,0,91.4,0,20.4,0,49.9,0,16.4,0,8.7,0,19.4,0
2005/1/5,0:00,-2,0,88,0,20.3,0,50,0,16.4,0,8.9,0,19.3,0